Location: Aula-Vintri
(58.3875°N, 22.4322°E)
Time: 08:42:49
(UTC+00:00)

Cosmos 1932 - Pass Details

Date: 13 October 2019
Orbit: 924 x 1005 km, 65.0° (Epoch: 13 November)

Event Time Altitude Azimuth Distance (km) Brightness Sun altitude
Rises 18:22:02 0° 232° (SW) 3,628 7.9 -22.8°
Reaches altitude 10° 18:24:34 10° 232° (SW) 2,697 7.1 -23.1°
Maximum altitude 18:30:54 88° 320° (NW) 987 4.4 -23.8°
Enters shadow 18:35:10 23° 53° (NE) 1,964 5.8 -24.3°
